Accueil
METAR-TAF:

METAR-TAF

Aéroports :

Greenville, Maine, États-Unis

latitude: 45-28N, longitude: 069-35W, altitude: 427 m

Observation

Le bulletin a été fait il y a 15 minutes, à 10:56 UTC
Vent 7 kt de sud/sud-est
Température 8°C
Humidité 100%
Pression 1015 hPa

METAR: KGNR 211056Z AUTO 15007KT 08/08 A2997 RMK AO1 SLP159 P0001 T00830083

Heure: 07:11 (11:11 UTC)


TAF: absent

Observations et prévisions météorologiques de plus de 4000 aéroports (messages METAR et TAF).

Les stations disponibles sont représentées par des disques jaunes et rouges sur la carte.

Passer la souris dessus pour voir le nom de la station.

Cliquer dessus pour voir les observations et prévisions météorologiques.

Pour changer de carte: cliquez sur les boutons verts avec une croix noire pour zoomer, sur le bouton vert avec un tiret pour effectuer un zoom arrière, ou sur les flèches vertes pour les cartes adjacentes.


METAR-TAF: